Retour au catalogue

ARIANE 5 R/B

ActifHEO
NORAD 37266·ROCKET BODY·🇫🇷 France

Lancé Dec 29, 2010 depuis Guiana Space Centre

Loading…

Prochains Passages (prochaines 24 heures)

TLE

FraisSource: Space-Track

Époque: Sep 14, 2026, 19:42 UTC

1 37266U 10070C   26257.82104937  .00000939  00000-0  36879-3 0  9995
2 37266   3.2688 178.1042 7037747 263.9373  19.0401  2.58127210139224

Suivez ARIANE 5 R/B en temps réel avec AllMySat

Download on the App Store